Find STARLINK-37851

NORAD ID: 799501009 Int'l Des: 2026-143K Constellation: starlink operational

Aktuelle Ansicht

3D-Globus wird geladen...

About STARLINK-37851

STARLINK-37851 (NORAD 799501009) is a starlink constellation satellite launched Jun 15, 2026

Über STARLINK-37851

Beschreibung wird geladen...

Nächste Überflüge

Passes for default location (London). Set your location on the main map for personalized predictions.

Höhenverlauf

Loading altitude history...

Zweizeiliger Elementsatz

1 99999C 2026143K 26173.19770832 .00460640 00000-0 700340-4 0 1731
2 99999 97.2820 216.0601 0011187 274.2880 240.1301 16.04129610 12
Epoch: 22. Juni 2026 • Age: 2 hours